Location: Unspecified
(0.0000°N, 0.0000°E)
Time: 22:51:06
(UTC+02:00)

Orbus 21S - Visible Passes

Search period start: 26 June 2017 00:00
Search period end: 06 July 2017 00:00
Orbit: 285 x 33042 km, 24.4° (Epoch: 25 June)

Date Brightness Start Highest point End Pass type
(mag) Time Alt. Az. Time Alt. Az. Time Alt. Az.
26 Jun 7.5 00:42:05 10° WNW 02:19:25 71° W 09:41:23 10° ESE visible
26 Jun 7.4 19:45:50 10° NNW 19:57:23 33° NE 04:34:08 10° ESE visible
28 Jun 7.3 01:05:39 10° WNW 02:41:50 62° W 10:03:31 10° ESE visible
28 Jun 7.6 20:07:23 10° NW 20:21:25 40° NE 04:59:09 10° ESE visible
30 Jun 7.1 01:29:35 10° WNW 03:04:26 54° W 10:25:21 10° ESE visible
30 Jun 7.8 20:28:48 10° NW 20:45:43 46° NE 05:23:21 10° ESE visible
02 Jul 6.8 01:54:07 10° WNW 03:26:55 46° W 10:46:54 10° E visible
02 Jul 8.0 20:50:06 10° NW 21:10:25 53° NE 05:46:52 10° ESE visible
04 Jul 6.5 02:19:35 10° WNW 03:49:05 39° W 11:08:10 10° E visible
04 Jul 8.2 21:11:17 10° NW 21:35:53 61° NE 06:09:48 10° ESE visible
